Regional Weather Roundup
Issued by NWS Wakefield, VA

Home | Current Version | Previous Version | Text Only | Print | Product List | Glossary On
Versions: 1 2 3 4 5 6 7 8 9 10 11 12 13 14 15 16 17 18 19 20 21 22 23 24 25 26 27 28 29 30 31 32 33 34 35 36 37 38 39 40 41 42 43 44 45 46 47 48 49 50
000
ASUS41 KAKQ 281714
RWRAKQ

REGIONAL WEATHER ROUNDUP
NATIONAL WEATHER SERVICE WAKEFIELD VA
1200 PM EST TUE FEB 28 2017

Note: "fair" indicates few or no clouds below 12,000 feet with no
significant weather and/or obstructions to visibility. * = Denotes
station may not report precipitation (e.g., rain,snow,etc.),
thunder or fog.

VAZ042-051-052>054-056-281800-
NORTHERN VIRGINIA

CITY           SKY/WX    TMP DP  RH WIND       PRES   REMARKS
WASH NATIONAL  PTSUNNY   63  46  54 S9        30.25F
DULLES         PTSUNNY   64  38  38 S8        30.24F
FORT BELVOIR   MOSUNNY   64  44  46 SE7       30.24F
QUANTICO       PTSUNNY   61  46  57 SW7       30.26F
FREDERICKSBRG* SUNNY     67  50  52 SW8       30.24F
STAFFORD*      SUNNY     66  47  49 CALM      30.28F
WARRENTON      SUNNY     67  36  32 SW6       30.23F
CULPEPER*      CLOUDY    65  41  41 S5        30.24F
MANASSAS*      CLOUDY    65  43  44 S6        30.24F
LEESBURG*      SUNNY     63  39  42 MISG      30.23F
WINCHESTER     PTSUNNY   63  37  39 SW5       30.20F
FRONT ROYAL*   MOSUNNY   63  37  39 CALM      30.20F
LURAY*         CLOUDY    59  41  51 W6        30.20F
$$

VAZ048-049-060>072-079>083-281800-
CENTRAL AND SOUTH CENTRAL VIRGINIA

CITY           SKY/WX    TMP DP  RH WIND       PRES   REMARKS
RICHMOND       PTSUNNY   68  52  56 SW6       30.25F
CHESTERFIELD*  FAIR      70  43  37 S6        30.26F
PETERSBURG*    MOSUNNY   69  51  52 S7        30.26F
HANOVER        MOSUNNY   66  48  52 S7        30.27F
TAPPAHANNOCK*  MOSUNNY   68  42  38 SE6       30.26F
QUINTON*       FAIR      68  53  59 MISG      30.25F
CHARLOTTSVILLE MOSUNNY   66  37  34 SE9       30.23F
GORDONSVILLE*  CLOUDY    65  42  43 S5        30.23F
ORANGE*        MOSUNNY   66  43  42 S13       30.25F
LOUISA*        CLOUDY    68  48  49 SW6       30.24F
BUMPASS*       FAIR      66  48  52 SW3       30.25F
FARMVILLE*     MOSUNNY   68  50  52 S7        30.23F
CREWE*         FAIR      67  52  57 S6        30.25F
FORT PICKETT*  NOT AVBL
CHASE CITY*    FAIR      67  49  52 S3        30.25F
CLARKSVILLE*   FAIR      70  54  56 SE3       30.25F
SOUTH HILL*    MOSUNNY   69  56  62 S7        30.30F
LAWRENCEVILLE* FAIR      70  54  55 S10G16    30.25F
EMPORIA*       MOSUNNY   70  54  56 S8        30.28F
$$

VAZ088>098-281800-
SOUTHEAST VIRGINIA

CITY           SKY/WX    TMP DP  RH WIND       PRES   REMARKS
NORFOLK        PTSUNNY   76  55  48 SW10      30.27F
VIRGINIA BEACH MOSUNNY   73  54  51 W9G20     30.27F
NORFOLK NAVAL  NOT AVBL
WEST POINT*    MOSUNNY   69  54  58 S6        30.28F
SALUDA*        FAIR      66  56  68 SE3       30.27F
NEWPORT NEWS   SUNNY     71  56  58 SW8       30.28F
LANGLEY AFB    MOSUNNY   71  58  62 SW7       30.27F
FORT EUSTIS    MOSUNNY   75  57  54 W5        30.25F
WILLIAMSBURG*  SUNNY     73  57  56 S5        30.28F
HR EXEC AP*    FAIR      75  57  53 SW14      30.26F
FRANKLIN*      PTSUNNY   71  56  58 SW7       30.28F
US460-WAKEFLD  SUNNY     70  56  61 SW7       30.27F
$$

VAZ020-022-025-037-045-281800-
WEST CENTRAL AND SOUTHWEST VIRGINIA

CITY           SKY/WX    TMP DP  RH WIND       PRES   REMARKS
STAUNTON*      CLOUDY    59  38  46 SW3       30.23F
WAYNESBORO*    CLOUDY    61  35  37 E3        30.22F
HOT SPRINGS VA CLOUDY    54  23  30 CALM      30.23F
LYNCHBURG      CLOUDY    63  42  46 S10       30.25F
DANVILLE       CLOUDY    67  50  54 SW6       30.24F
SOUTH BOSTON*  FAIR      70  50  48 S5        30.24F
MARTINSVILLE   CLOUDY    65  46  49 SW6       30.26F
ROANOKE        CLOUDY    59  34  39 VRB3      30.25F
BLACKSBURG     CLOUDY    59  41  50 CALM      30.25F
DUBLIN*        CLOUDY    58  39  50 E3        30.23F
MARION*        CLOUDY    60  39  46 E7        30.23F
HILLSVILLE*    MOSUNNY   60  44  55 S12G20    30.21F
RICHLANDS*     FAIR      67  43  42 S6        30.17F
WISE*          CLOUDY    61  41  48 S14G24    30.18F
ABINGDON*      CLOUDY    66  42  41 CALM      30.18F
$$

MDZ021>025-VAZ099-100-281800-
SOUTHERN MARYLAND AND THE DELMARVA PENINSULA

CITY           SKY/WX    TMP DP  RH WIND       PRES   REMARKS
PATUXENT RIVER MOSUNNY   56  50  80 E10       30.27F
BAY BRIDGE APT MOSUNNY   63  46  55 S7        30.27F
LEONARDTOWN    SUNNY     64  50  59 SW3       30.27F
DOVER          MOSUNNY   60  53  76 VRB6      30.27F
GEORGETOWN     SUNNY     69  51  52 SW7       30.27F
EASTON         PTSUNNY   64  48  55 SW7       30.31F
CAMBRIDGE      SUNNY     66  52  59 S6G13     30.27F
SALISBURY      MOSUNNY   69  54  58 S12       30.27F
OCEAN CITY     MOSUNNY   60  52  74 S7        30.30F
WALLOPS ISLAND PTSUNNY   60  53  77 S8        30.30F
ACCOMACK*      CLOUDY    67  54  64 W8        30.29F
$$

NCZ012>017-030>032-281800-
NORTH CENTRAL AND EASTERN NORTH CAROLINA

CITY           SKY/WX    TMP DP  RH WIND       PRES   REMARKS
ROANOKE RAPIDS PTSUNNY   72  59  64 SW9       30.27F
RALEIGH        PTSUNNY   73  56  54 S10       30.26F
ELIZABETH CITY SUNNY     74  57  55 S7        30.29F
AHOSKIE*       MOSUNNY   73  58  59 CALM      30.27F
EDENTON*       SUNNY     76  60  57 S8        30.30F
CURRITUCK*     SUNNY     74  55  51 SW13      30.31F
KILL DEVIL HLS NOT AVBL
MANTEO         MOSUNNY   68  58  72 S10       30.31F
CAPE HATTERAS  SUNNY     74  61  63 SW10      30.32F
TARBORO*       NOT AVBL
GOLDSBORO      PTSUNNY   75  64  69 SE9       30.25F
WASHINGTON     MOSUNNY   74  60  59 S8        30.29F
GREENVILLE     PTSUNNY   73  61  64 S10       30.29F
NEW BERN       MOSUNNY   77  62  59 S12       30.30F
WILMINGTON     PTSUNNY   72  63  73 SE9       30.31F
$$

VAZ048-281800-
ELSEWHERE

CITY           SKY/WX    TMP DP  RH WIND       PRES   REMARKS
HARRISBURG PA    N/A     59  36  42 SE9       30.23F
BALTIMORE      PTSUNNY   64  45  49 VRB6      30.24F
ANNAPOLIS      MOSUNNY   51  46  83 SE10      30.27F
ANDREWS AFB    MOSUNNY   67  47  49 S7        30.23F
PHILADELPHIA   CLOUDY    61  44  53 VRB3      30.28F
HENDERSON NC   MOSUNNY   67  53  59 SE3       30.25F
GREENSBORO     CLOUDY    68  53  58 SW13      30.24F
ROCKY MOUNT    PTSUNNY   72  61  68 S8        30.27F
$$

VAZ100-281800-
MARINE

STATION/POSITION TIME  TEMP    WIND        PRES    WAVE   SWELL
                       AIR SEA DIR/SP/G            HT/PER HT/PER
                 (UTC) (F)     (DEG/KT/KT) (MB)    (FT/S) (FT/S)
CAPE MAY NJ      1648   59 45  140/  7/  8 1025.3F
LEWES DE         1648   60 45  120/  8/ 10 1025.2F
OCEAN-CITY-INLET 1648   52 45  190/  7/  9 1026.6F
WACHAPREAGUE VA  1642   60 53  190/  6/  8 1026.2F
THOMAS POINT MD  1700   51 45  160/  8/  8   N/A
GOOSES REEF MD   1700   50 46  160/  6/  6 1025.7    0
COVE POINT MD    1642   51     180/ 12/ 12 1025.7F
SOLOMONS ISLAND  1642   53 46   90/ 11/ 11   N/A
BISHOPS HEAD MD  1648   55 51  190/  3/  5 1026.0F
PINEY POINT MD   1648          140/  5/  6   N/A
POTOMAC MD       1700   49 49  110/  6/  8 1024.3    0
CAMBRIDGE MD     1648   58 47   10/  5/  6 1024.7F
LEWISETTA VA     1648   50 49  120/  9/ 10 1024.9F
RAPPAHANNOCK LGT 1648          170/ 10/ 10 1026.3F
YORK RVR RNG VA  1648   53     110/  7/  8 1024.9F
YORKTOWN VA      1648   68 50  260/  4/  8 1025.1F
JAMESTOWN VA     1700   64 55  320/  2/  4   N/A     0
DOMINION TERM VA 1648   64     240/  9/  9 1025.4F
KIPTOPEKE VA     1648      49  180/  8/  9   N/A
CHES BAY BRIDGE  1648   62 49   80/  5/  8 1025.4F
CAPE HENRY VA    1648   62     130/  6/ 12   N/A
WILLOUBY STN VA  1648   65     240/  1/  2 1026.4F
S CRANEY ISL VA  1648   71     260/  7/ 10 1025.2F
CAPE HENRY BUOY  1642      51                N/A     3/ 7
OFFSHORE WE BUOY 1651      51                N/A     4/ 6
64NM E OF VA BCH 1650   56 52  200/  6/  6 1026.8R   4/ 6   3/ 6
DUCK PIER NC     1648   63 50  160/  6/  7 1025.8F
44100 DUCK FRF   1635      51                N/A     4/ 6
44056 DUCK FRF   1700      53                N/A     3/ 6
OREGON INLET NC  1642   64 57  190/  6/  7 1026.8F
HATTERAS NC      1648   71 62  200/  8/ 12 1026.5F
DIAMOND SHLS NC  1650   71 71  200/ 19/ 21 1026.5F   4/ 6   2/11
CAPE LOOKOUT NC  1600   69     190/ 10/ 14 1026.8F
$$



USA.gov is the U.S. government's official web portal to all federal, state and local government web resources and services.